USA 40 R/B DEB, 23354

Orbit data source: Space-Track

USA 40 R/B DEB, 23354 is space debris originally from a launch on Tue, 08 Aug 1989 UTC launched from the Air Force Eastern Test Range (AFETR). Debris objects in space refer to the collection of defunct objects orbiting the Earth. Examples of debris include non-operational satellites, rocket bodies, and fragments generated from explosions, collisions, or faulty payload assembly.

Loading next visibility...
Identifier
23354, 1989-061AA
Orbit
Active
Country
Flag of USUS
Related business
Manufacturer
Unknown
Mission
Spacecraft
Bus & Motor
Unknown
Mass
Unknown
Launch date (UTC)
1989-08-08 (37 years ago)
Launch vehicle
Unknown
Launch site
Air Force Eastern Test Range (AFETR)
Object type
Payload
Rocket body
Debris
Shape & HBR
Unknown shape, 0.1 m
Radar Cross Section
Small (<0.1 m²)

Expand to show TLE details & history
Last TLE update: 8 hours ago

TLE from 8 hours ago
0 USA 40 R/B DEB
1 23354U 89061AA  26094.21164372  .00001599  00000-0  17725-2 0  9996
2 23354  56.9799 131.7944 3014218 111.5666 283.0466  8.77344133224139
Epoch: 2026-04-04T05:04Z
TLE epoch observation values (Epoch: 2026-04-04T05:04:46.017Z)
Latitude
0.00001°
Longitude
-136.932°
Altitude
3,771.352 km
Speed
6.199 km/s
True Right ascension
08h 47m 10s
True Declination
0° 00' 00"
Sunlit
Object was in daylight at epoch
Visualization orbit readout
Latitude
Unknown
Longitude
Unknown
Altitude
Unknown
Speed
Unknown
Apparent Right ascension
Unknown
Apparent Declination
Unknown
Sunlit
N/A
Visualization observer readout
Local Sidereal Time
19:08:28
Azimuth
Unknown
Elevation
Unknown
Doppler factor
Unknown
Orbital elements
Apogee altitude
6,544.803 km
Perigee altitude
558.649 km
Semi-major axis
9,929.863 km
Eccentricity
0.30142
Inclination
56.9799°
RAAN
131.7944°
Arg. of periapsis
111.5666°
True anomaly
248.5167°
Mean anomaly
283.0466°
Eccentric anomaly
265.82229°
Mean motion
2.19345 °/min
Orbital period
164.12 mins
BSTAR
0.0017725
Loading maneuver chart data...
Computing Atmospheric mass density...
Loading historical data...
Loading historical data...
Loading historical data...
Loading historical data...
Loading historical data...
Loading historical data...
Loading historical data...

Documentation

Showing up to 5 results
|